GALAXY 31 (G-31)

Last updated on Mon Sep 14 2026 00:03:02 GMT+0000 (Coordinated Universal Time)

1 54243U 22153A 26256.12560345 .00000001 00000+0 00000+0 0 9997 2 54243 0.0160 124.8284 0001241 44.7344 106.7806 1.00272531 8018
UTC large
Height (km)
Speed (km/s)
/
Latitude / Longitude
Inclination (degrees)
Orbital Period (minutes)
Azimuth
Elevation
Range (km)
Doppler Factor

Next 0 passes for location: London (51.5072 / 0.1276)

No passes found over London.
GALAXY 31 (G-31)